Location: Newark
(55.8372°N, 37.1596°E)
Time: 06:32:32
(UTC+00:00)

Envisat - Pass Details

Date: 18 October 2019
Orbit: 764 x 766 km, 98.1° (Epoch: 12 November)

Event Time Altitude Azimuth Distance (km) Brightness Sun altitude
Rises 17:06:53 0° 219° (SW) 3,227 6.5 -23.3°
Reaches altitude 10° 17:10:15 10° 242° (WSW) 2,307 6.0 -23.8°
Maximum altitude 17:13:04 15° 276° (W) 1,992 6.1 -24.1°
Drops below altitude 10° 17:15:55 10° 311° (NW) 2,316 6.4 -24.5°
Sets 17:19:19 0° 334° (NNW) 3,248 6.9 -25.0°
